Bettles, AK

5:15 AM AKDT on April 25, 2017 (GMT -0800)
Bettles

Weather History for PABT - November, 2012

Change the Weather History Date:

Sunday, November 18, 2012

  Actual Average Record
Temperature  
Mean Temperature -6 °F -  
Max Temperature 1 °F 3 °F 35 °F (1964)
Min Temperature -13 °F -10 °F -40 °F (1993)
Degree Days  
Heating Degree Days 71    
Moisture  
Dew Point -13 °F    
Average Humidity 62    
Maximum Humidity 76    
Minimum Humidity 40    
Precipitation  
Precipitation 0.00 in - - ()
Snow  
Snow 0.00 in - - ()
Snow Depth 1.00 in    
Sea Level Pressure  
Sea Level Pressure 30.11 in    
Wind  
Wind Speed 6 mph (NNE)    
Max Wind Speed 12 mph    
Max Gust Speed -    
Visibility 10 miles    
Events      
Averages and records for this station are not official NWS values.
T = Trace of Precipitation, MM = Missing Value Source: NWS Daily Summary

Daily Weather History Graph

Daily Weather History Graph

Search for Another Location

Airport or City:

Trip Planner

Search our weather history database for the weather conditions in past years. The results will help you decide how hot, cold, wet, or windy it might be!

Date:

Astronomy

Nov. 18, 2012 Rise Set
Actual Time 10:20 AM AKST 3:22 PM AKST
Civil Twilight 9:03 AM AKST 4:38 PM AKST
Nautical Twilight 7:52 AM AKST 5:48 PM AKST
Astronomical Twilight 6:49 AM AKST 6:52 PM AKST
Moon 2:07 PM AKST (11/18) 9:49 PM AKST (11/18)
Length of Visible Light 7h 34m
Length of Day
5h 02m
Waxing Crescent, 31% of the Moon is Illuminated
Nov 18
Waxing Crescent
Nov 20
First Quarter
Nov 28
Full
Dec 6
Last Quarter
Dec 12
New

Hourly Weather History & Observations

Time (AKST) Temp. Windchill Dew Point Humidity Pressure Visibility Wind Dir Wind Speed Gust Speed Precip Events Conditions
12:53 AM 1.0 °F -10.3 °F -4.9 °F 76% 29.99 in 10.0 mi NNW 5.8 mph - N/A   Clear
1:53 AM -4.0 °F -12.4 °F -9.9 °F 76% 30.00 in 10.0 mi North 3.5 mph - N/A   Clear
2:53 AM -4.9 °F - -11.9 °F 72% 30.00 in 10.0 mi Calm Calm - N/A   Clear
3:53 AM -0.0 °F -17.1 °F -11.9 °F 57% 29.99 in 10.0 mi NNE 11.5 mph - N/A   Clear
4:53 AM -0.0 °F -14.2 °F -13.0 °F 54% 30.00 in 10.0 mi NNE 8.1 mph - N/A   Clear
5:53 AM -2.0 °F -13.9 °F -14.1 °F 57% 30.03 in 10.0 mi North 5.8 mph - N/A   Clear
6:53 AM -2.0 °F -18.7 °F -9.9 °F 69% 30.04 in 10.0 mi NNE 10.4 mph - N/A   Clear
7:53 AM -2.0 °F -18.7 °F -9.9 °F 69% 30.04 in 10.0 mi NNE 10.4 mph - N/A   Partly Cloudy
8:53 AM -2.0 °F - -14.1 °F 57% 30.07 in 10.0 mi Calm Calm - N/A   Partly Cloudy
9:53 AM -4.0 °F -16.3 °F -14.1 °F 62% 30.08 in 10.0 mi North 5.8 mph - N/A   Partly Cloudy
10:53 AM -2.0 °F -19.6 °F -13.0 °F 60% 30.10 in 10.0 mi NNE 11.5 mph - N/A   Clear
11:53 AM -2.0 °F -10.1 °F -11.9 °F 63% 30.11 in 10.0 mi NE 3.5 mph - N/A   Partly Cloudy
12:53 PM -0.0 °F -15.3 °F -11.0 °F 60% 30.11 in 10.0 mi NNE 9.2 mph - N/A   Partly Cloudy
1:53 PM -0.9 °F -14.1 °F -11.0 °F 62% 30.13 in 10.0 mi NNE 6.9 mph - N/A   Partly Cloudy
2:53 PM -0.9 °F -12.7 °F -11.9 °F 60% 30.13 in 10.0 mi NNE 5.8 mph - N/A   Partly Cloudy
3:53 PM -4.0 °F - -13.0 °F 65% 30.13 in 10.0 mi Calm Calm - N/A   Partly Cloudy
4:53 PM -6.0 °F -16.9 °F -14.1 °F 68% 30.15 in 10.0 mi North 4.6 mph - N/A   Partly Cloudy
5:53 PM -7.1 °F -19.9 °F -14.1 °F 72% 30.16 in 10.0 mi NNE 5.8 mph - N/A   Clear
6:53 PM -4.0 °F -16.3 °F -14.1 °F 62% 30.17 in 10.0 mi NNE 5.8 mph - N/A   Clear
7:53 PM -2.9 °F -16.5 °F -14.1 °F 59% 30.19 in 10.0 mi NE 6.9 mph - N/A   Clear
8:53 PM -6.0 °F -21.5 °F -15.0 °F 65% 30.20 in 10.0 mi NNE 8.1 mph - N/A   Clear
9:53 PM -11.0 °F -20.4 °F -17.0 °F 75% 30.22 in 10.0 mi North 3.5 mph - N/A   Clear
10:53 PM -7.1 °F -21.4 °F -16.1 °F 65% 30.22 in 10.0 mi North 6.9 mph - N/A   Clear
11:53 PM -8.0 °F -21.0 °F -17.0 °F 65% 30.23 in 10.0 mi NNE 5.8 mph - N/A   Clear